Location: Bouchavesnes-Bergen
(49.9859°N, 2.9203°E)
Time: 10:29:22
(UTC+00:00)

Cosmos 1833 Rocket - Pass Details

Date: 09 March 2021
Orbit: 831 x 841 km, 71.0° (Epoch: 12 April)

Event Time Altitude Azimuth Distance (km) Brightness Sun altitude
Exits shadow 02:39:54 24° 345° (NNW) 1,667 4.4 -33.3°
Drops below altitude 10° 02:43:02 10° 15° (NNE) 2,457 5.7 -32.9°
Sets 02:45:50 0° 27° (NNE) 3,396 6.7 -32.5°
